Weather History for Morganton, NC

Change the Weather History Date:

Friday, March 22, 2013

  Actual Average (KHKY) Record (KHKY)
Temperature  
Mean Temperature 33 °F -  
Max Temperature 50 °F 61 °F 80 °F (1991)
Min Temperature 16 °F 40 °F 23 °F (1954)
Degree Days  
Heating Degree Days 32    
Moisture  
Dew Point 14 °F    
Average Humidity 45    
Maximum Humidity 89    
Minimum Humidity 18    
Precipitation  
Precipitation 0.00 in - - ()
Sea Level Pressure  
Sea Level Pressure 30.03 in    
Wind  
Wind Speed 3 mph (WSW)    
Max Wind Speed 9 mph    
Max Gust Speed -    
Visibility 10 miles    
Events      
Averages and records for this station are not official NWS values.
T = Trace of Precipitation, MM = Missing Value Source: NWS Daily Summary

Daily Weather History Graph

Daily Weather History Graph

Search for Another Location

Airport:

Trip Planner

Search our weather history database for the weather conditions in past years. The results will help you decide how hot, cold, wet, or windy it might be!

Date:

Astronomy

Mar. 22, 2013 Rise Set
Actual Time 7:26 AM EDT 7:40 PM EDT
Civil Twilight 7:01 AM EDT 8:05 PM EDT
Nautical Twilight 6:31 AM EDT 8:35 PM EDT
Astronomical Twilight 6:01 AM EDT 9:05 PM EDT
Moon 3:13 PM EDT (3/22) 4:18 AM EDT (3/22)
Length of Visible Light 13h 04m
Length of Day
12h 13m
Waxing Gibbous, 77% of the Moon is Illuminated
Mar 22
Waxing Gibbous
Mar 27
Full
Apr 3
Last Quarter
Apr 10
New
Apr 18
First Quarter

Hourly Weather History & Observations

Time (EDT) Temp. Windchill Dew Point Humidity Pressure Visibility Wind Dir Wind Speed Gust Speed Precip Events Conditions
12:15 AM 31.5 °F 24.9 °F 8.8 °F 39% 30.00 in 10.0 mi North 6.9 mph - N/A   Clear
12:35 AM 30.7 °F 24.1 °F 9.3 °F 41% 30.00 in 10.0 mi North 6.9 mph - N/A   Clear
12:55 AM 30.4 °F 23.6 °F 9.5 °F 42% 30.00 in 10.0 mi North 6.9 mph - N/A   Clear
1:15 AM 30.0 °F 24.1 °F 9.5 °F 42% 30.00 in 10.0 mi North 5.8 mph - N/A   Clear
1:35 AM 28.6 °F 23.5 °F 9.9 °F 46% 30.00 in 10.0 mi North 4.6 mph - N/A   Clear
1:55 AM 27.5 °F - 10.6 °F 49% 30.00 in 10.0 mi Calm Calm - N/A   Clear
2:15 AM 23.9 °F - 12.7 °F 62% 30.00 in 10.0 mi Calm Calm - N/A   Clear
2:35 AM 21.9 °F - 13.5 °F 70% 30.00 in 10.0 mi Calm Calm - N/A   Clear
2:55 AM 26.6 °F 20.0 °F 10.9 °F 52% 30.00 in 10.0 mi North 5.8 mph - N/A   Clear
3:15 AM 24.1 °F - 12.0 °F 60% 30.00 in 10.0 mi Calm Calm - N/A   Clear
3:35 AM 22.8 °F - 13.1 °F 66% 30.00 in 10.0 mi Calm Calm - N/A   Clear
3:55 AM 20.1 °F - 13.6 °F 76% 30.00 in 10.0 mi Calm Calm - N/A   Clear
4:15 AM 19.4 °F - 13.6 °F 78% 30.01 in 10.0 mi Calm Calm - N/A   Clear
4:35 AM 19.8 °F - 14.7 °F 81% 30.00 in 10.0 mi Calm Calm - N/A   Clear
4:55 AM 18.3 °F - 14.2 °F 84% 30.01 in 10.0 mi Calm Calm - N/A   Clear
5:15 AM 18.5 °F - 13.6 °F 81% 30.02 in 10.0 mi Calm Calm - N/A   Clear
5:35 AM 17.8 °F - 13.8 °F 84% 30.02 in 10.0 mi Calm Calm - N/A   Clear
5:55 AM 18.3 °F - 13.5 °F 81% 30.03 in 10.0 mi Calm Calm - N/A   Clear
6:15 AM 17.1 °F - 13.6 °F 86% 30.03 in 10.0 mi Calm Calm - N/A   Clear
6:35 AM 16.7 °F - 13.3 °F 86% 30.04 in 10.0 mi Calm Calm - N/A   Clear
6:55 AM 17.8 °F - 13.3 °F 83% 30.05 in 10.0 mi Calm Calm - N/A   Clear
7:15 AM 17.4 °F - 13.3 °F 84% 30.06 in 10.0 mi Calm Calm - N/A   Clear
7:35 AM 17.4 °F - 13.5 °F 84% 30.07 in 10.0 mi Calm Calm - N/A   Clear
7:55 AM 17.8 °F - 15.1 °F 89% 30.08 in 10.0 mi Calm Calm - N/A   Clear
8:15 AM 22.1 °F - 17.8 °F 83% 30.08 in 10.0 mi Calm Calm - N/A   Clear
8:35 AM 26.4 °F - 18.0 °F 70% 30.09 in 10.0 mi Calm Calm - N/A   Clear
8:55 AM 28.0 °F - 17.2 °F 64% 30.09 in 10.0 mi Calm Calm - N/A   Clear
9:15 AM 29.3 °F - 15.3 °F 56% 30.10 in 10.0 mi Calm Calm - N/A   Clear
9:35 AM 30.2 °F - 14.5 °F 52% 30.08 in 10.0 mi Calm Calm - N/A   Clear
9:55 AM 31.8 °F 27.3 °F 15.3 °F 50% 30.08 in 10.0 mi West 4.6 mph - N/A   Clear
10:15 AM 33.4 °F 29.1 °F 14.4 °F 46% 30.08 in 10.0 mi WSW 4.6 mph - N/A   Clear
10:35 AM 35.2 °F 30.3 °F 13.5 °F 41% 30.08 in 10.0 mi West 5.8 mph - N/A   Clear
10:55 AM 36.5 °F 31.8 °F 13.3 °F 39% 30.08 in 10.0 mi SW 5.8 mph - N/A   Clear
11:15 AM 37.8 °F - 12.2 °F 35% 30.07 in 10.0 mi Calm Calm - N/A   Scattered Clouds
11:35 AM 37.9 °F 33.5 °F 11.5 °F 34% 30.07 in 10.0 mi SW 5.8 mph - N/A   Mostly Cloudy
11:55 AM 39.4 °F - 11.1 °F 31% 30.07 in 10.0 mi Calm Calm - N/A   Scattered Clouds
12:15 PM 41.0 °F - 10.2 °F 28% 30.06 in 10.0 mi Calm Calm - N/A   Clear
12:35 PM 42.4 °F 40.7 °F 10.8 °F 27% 30.05 in 10.0 mi West 3.5 mph - N/A   Clear
12:55 PM 44.1 °F - 11.1 °F 26% 30.04 in 10.0 mi Calm Calm - N/A   Clear
1:15 PM 44.8 °F 43.3 °F 10.8 °F 25% 30.04 in 10.0 mi WNW 3.5 mph - N/A   Clear
1:35 PM 46.2 °F 42.7 °F 9.5 °F 23% 30.03 in 10.0 mi WSW 6.9 mph - N/A   Clear
1:55 PM 47.5 °F - 9.3 °F 21% 30.02 in 10.0 mi SW 6.9 mph - N/A   Clear
2:15 PM 48.2 °F - 7.2 °F 19% 30.00 in 10.0 mi NW 5.8 mph - N/A   Clear
2:35 PM 50.5 °F - 9.7 °F 19% 30.00 in 10.0 mi SW 6.9 mph - N/A   Clear
2:55 PM 50.2 °F - 7.3 °F 18% 30.00 in 10.0 mi SSW 6.9 mph - N/A   Scattered Clouds
3:15 PM 49.6 °F - 9.0 °F 19% 30.00 in 10.0 mi SSW 5.8 mph - N/A   Mostly Cloudy
3:35 PM 49.6 °F - 7.0 °F 18% 29.99 in 10.0 mi SSW 3.5 mph - N/A   Overcast
3:55 PM 50.2 °F - 9.5 °F 19% 29.99 in 10.0 mi SW 4.6 mph - N/A   Overcast
4:15 PM 50.5 °F - 10.4 °F 20% 29.99 in 10.0 mi South 5.8 mph - N/A   Overcast
4:35 PM 50.9 °F - 12.2 °F 21% 29.98 in 10.0 mi SW 5.8 mph - N/A   Overcast
4:55 PM 50.7 °F - 12.4 °F 22% 29.99 in 10.0 mi SSW 9.2 mph - N/A   Overcast
5:15 PM 50.4 °F - 13.3 °F 23% 29.99 in 10.0 mi SSW 6.9 mph - N/A   Overcast
5:35 PM 50.0 °F - 13.3 °F 23% 29.99 in 10.0 mi SSW 5.8 mph - N/A   Overcast
5:55 PM 50.0 °F - 14.5 °F 24% 29.99 in 10.0 mi SW 6.9 mph - N/A   Overcast
6:15 PM 49.8 °F - 14.7 °F 25% 29.99 in 10.0 mi SSW 6.9 mph - N/A   Overcast
6:35 PM 50.0 °F - 15.4 °F 25% 29.99 in 10.0 mi SW 6.9 mph - N/A   Overcast
6:55 PM 49.5 °F - 15.6 °F 26% 30.00 in 10.0 mi SW 5.8 mph - N/A   Overcast
7:15 PM 49.1 °F - 16.3 °F 27% 30.00 in 10.0 mi SW 5.8 mph - N/A   Overcast
7:35 PM 48.7 °F - 16.9 °F 28% 30.00 in 10.0 mi Calm Calm - N/A   Overcast
7:55 PM 47.8 °F - 17.1 °F 29% 30.01 in 10.0 mi Calm Calm - N/A   Overcast
8:15 PM 45.3 °F - 22.8 °F 41% 30.01 in 10.0 mi Calm Calm - N/A   Overcast
8:35 PM 45.0 °F - 23.7 °F 43% 30.01 in 10.0 mi Calm Calm - N/A   Overcast
8:55 PM 47.1 °F - 18.7 °F 32% 30.02 in 10.0 mi Calm Calm - N/A   Overcast
9:15 PM 47.3 °F - 18.5 °F 32% 30.02 in 10.0 mi West 4.6 mph - N/A   Overcast
9:35 PM 46.2 °F 42.7 °F 19.0 °F 34% 30.03 in 10.0 mi SW 6.9 mph - N/A   Mostly Cloudy
9:55 PM 45.7 °F 42.0 °F 19.4 °F 35% 30.03 in 10.0 mi WSW 6.9 mph - N/A   Mostly Cloudy
10:15 PM 45.0 °F 42.6 °F 19.6 °F 36% 30.03 in 10.0 mi WSW 4.6 mph - N/A   Mostly Cloudy
10:35 PM 44.6 °F 42.2 °F 19.6 °F 37% 30.03 in 10.0 mi WSW 4.6 mph - N/A   Overcast
10:55 PM 43.9 °F 40.5 °F 20.3 °F 39% 30.04 in 10.0 mi SW 5.8 mph - N/A   Overcast
11:15 PM 43.3 °F 40.7 °F 20.3 °F 40% 30.04 in 10.0 mi SW 4.6 mph - N/A   Mostly Cloudy
11:35 PM 42.8 °F 41.1 °F 20.7 °F 41% 30.04 in 10.0 mi WSW 3.5 mph - N/A   Mostly Cloudy
11:55 PM 42.6 °F 40.9 °F 20.7 °F 42% 30.04 in 10.0 mi WNW 3.5 mph - N/A   Overcast